CHH7092 ZPPP-ZJHK

Flight info

Callsign CHH7092
Flight time 1h 41m
Altitude 26600
Route LXI9Y LXI A599 BSE R339 BHY W70 NYB
Aircraft A20N/M-SDE2E3FGHIRWXY/LB1

Departure

Time 2026-04-29 21:38
Airport Kunming Changshui International Airport (ZPPP)

Arrival

Time 2026-04-29 23:20
Airport Haikou Meilan International Airport (ZJHK)
Time Latitude Longitude Altitude Speed Heading
2026-04-29 21:17 25.11006 102.94107 6913 ft 0 kts 218°
2026-04-29 21:25 25.11016 102.94115 6912 ft 2 kts 218°
2026-04-29 21:25 25.11028 102.94126 6912 ft 2 kts 218°
2026-04-29 21:25 25.11040 102.94136 6912 ft 2 kts 218°
2026-04-29 21:25 25.11052 102.94147 6912 ft 2 kts 218°
2026-04-29 21:26 25.11063 102.94156 6912 ft 2 kts 218°
2026-04-29 21:26 25.11070 102.94163 6912 ft 2 kts 219°
2026-04-29 21:26 25.11084 102.94169 6912 ft 2 kts 178°
2026-04-29 21:26 25.11098 102.94164 6912 ft 2 kts 143°
2026-04-29 21:27 25.11103 102.94160 6912 ft 1 kts 130°
2026-04-29 21:27 25.11107 102.94154 6912 ft 0 kts 128°
2026-04-29 21:30 25.11106 102.94154 6912 ft 0 kts 128°
2026-04-29 21:30 25.11103 102.94160 6912 ft 1 kts 128°
2026-04-29 21:30 25.11094 102.94172 6912 ft 7 kts 128°
2026-04-29 21:31 25.11025 102.94272 6912 ft 16 kts 123°
2026-04-29 21:31 25.10961 102.94373 6912 ft 14 kts 118°
2026-04-29 21:31 25.10971 102.94455 6912 ft 11 kts 57°
2026-04-29 21:31 25.10967 102.94524 6912 ft 9 kts 133°
2026-04-29 21:32 25.10903 102.94519 6912 ft 10 kts 222°
2026-04-29 21:32 25.10844 102.94461 6912 ft 12 kts 220°
2026-04-29 21:32 25.10772 102.94402 6912 ft 13 kts 218°
2026-04-29 21:32 25.10679 102.94321 6912 ft 18 kts 218°
2026-04-29 21:33 25.10580 102.94234 6912 ft 18 kts 219°
2026-04-29 21:33 25.10482 102.94145 6912 ft 18 kts 219°
2026-04-29 21:33 25.10380 102.94063 6912 ft 17 kts 218°
2026-04-29 21:33 25.10287 102.93979 6912 ft 17 kts 220°
2026-04-29 21:34 25.10193 102.93897 6912 ft 16 kts 217°
2026-04-29 21:34 25.10102 102.93820 6912 ft 16 kts 219°
2026-04-29 21:34 25.10013 102.93740 6912 ft 16 kts 219°
2026-04-29 21:34 25.09926 102.93663 6913 ft 15 kts 218°
2026-04-29 21:35 25.09839 102.93589 6913 ft 16 kts 218°
2026-04-29 21:35 25.09748 102.93511 6913 ft 17 kts 218°
2026-04-29 21:35 25.09652 102.93426 6913 ft 18 kts 219°
2026-04-29 21:35 25.09552 102.93339 6913 ft 18 kts 218°
2026-04-29 21:36 25.09447 102.93247 6913 ft 19 kts 218°
2026-04-29 21:36 25.09337 102.93153 6913 ft 19 kts 218°
2026-04-29 21:36 25.09281 102.93105 6913 ft 10 kts 218°
2026-04-29 21:36 25.09209 102.93106 6913 ft 12 kts 128°
2026-04-29 21:37 25.09151 102.93191 6913 ft 15 kts 127°
2026-04-29 21:37 25.09144 102.93225 6913 ft 4 kts 37°
2026-04-29 21:37 25.09281 102.93343 6913 ft 59 kts 38°
2026-04-29 21:37 25.09785 102.93778 6913 ft 124 kts 38°
2026-04-29 21:38 25.10612 102.94498 6936 ft 174 kts 39°
2026-04-29 21:38 25.11546 102.95389 7471 ft 177 kts 49°
2026-04-29 21:38 25.12235 102.96491 8150 ft 174 kts 58°
2026-04-29 21:38 25.12875 102.97647 8593 ft 187 kts 58°
2026-04-29 21:39 25.13617 102.98878 9030 ft 197 kts 53°
2026-04-29 21:39 25.14445 103.00091 9706 ft 205 kts 52°
2026-04-29 21:39 25.15345 103.01398 10259 ft 222 kts 52°
2026-04-29 21:39 25.16301 103.02797 10828 ft 239 kts 52°
2026-04-29 21:40 25.17275 103.04363 11401 ft 256 kts 65°
2026-04-29 21:40 25.17589 103.06310 11754 ft 270 kts 101°
2026-04-29 21:40 25.16945 103.08277 12160 ft 279 kts 120°
2026-04-29 21:40 25.15981 103.10157 12716 ft 285 kts 122°
2026-04-29 21:41 25.15006 103.12057 13311 ft 290 kts 121°
2026-04-29 21:41 25.14055 103.14032 13902 ft 294 kts 119°
2026-04-29 21:41 25.13034 103.15971 14497 ft 295 kts 129°
2026-04-29 21:41 25.11668 103.17653 15077 ft 294 kts 142°
2026-04-29 21:42 25.10075 103.19067 15668 ft 294 kts 146°
2026-04-29 21:42 25.08428 103.20434 16227 ft 297 kts 146°
2026-04-29 21:42 25.06699 103.21619 16741 ft 294 kts 164°
2026-04-29 21:42 25.04727 103.22013 17261 ft 287 kts 187°
2026-04-29 21:43 25.02791 103.21561 17788 ft 282 kts 208°
2026-04-29 21:43 25.01135 103.20456 18300 ft 281 kts 218°
2026-04-29 21:43 24.99530 103.19190 18826 ft 283 kts 218°
2026-04-29 21:43 24.97921 103.17923 19351 ft 285 kts 218°
2026-04-29 21:44 24.96319 103.16672 19861 ft 287 kts 218°
2026-04-29 21:44 24.94667 103.15391 20356 ft 290 kts 218°
2026-04-29 21:44 24.93014 103.14114 20832 ft 293 kts 218°
2026-04-29 21:44 24.91354 103.12834 21295 ft 295 kts 218°
2026-04-29 21:45 24.89651 103.11524 21779 ft 297 kts 218°
2026-04-29 21:45 24.87943 103.10210 22245 ft 300 kts 218°
2026-04-29 21:45 24.86227 103.08890 22708 ft 302 kts 218°
2026-04-29 21:45 24.84392 103.07756 23129 ft 309 kts 202°
2026-04-29 21:46 24.82245 103.07328 23548 ft 319 kts 183°
2026-04-29 21:46 24.80028 103.07704 23950 ft 330 kts 164°
2026-04-29 21:46 24.77978 103.08916 24336 ft 342 kts 143°
2026-04-29 21:46 24.76398 103.10876 24723 ft 352 kts 122°
2026-04-29 21:47 24.75401 103.13344 25154 ft 356 kts 112°
2026-04-29 21:47 24.74542 103.15900 25565 ft 360 kts 112°
2026-04-29 21:47 24.73675 103.18488 25945 ft 364 kts 112°
2026-04-29 21:47 24.72786 103.21112 26346 ft 367 kts 112°
2026-04-29 21:48 24.71885 103.23740 26717 ft 370 kts 112°
2026-04-29 21:48 24.70969 103.26387 26805 ft 371 kts 112°
2026-04-29 21:48 24.70052 103.29031 26812 ft 370 kts 112°
2026-04-29 21:48 24.69137 103.31661 26814 ft 370 kts 113°
2026-04-29 21:49 24.68219 103.34291 26816 ft 370 kts 112°
2026-04-29 21:49 24.67295 103.36932 26816 ft 370 kts 112°
2026-04-29 21:49 24.66382 103.39544 26817 ft 370 kts 112°
2026-04-29 21:49 24.65462 103.42172 26815 ft 369 kts 112°
2026-04-29 21:50 24.64534 103.44824 26814 ft 369 kts 112°
2026-04-29 21:50 24.63610 103.47461 26815 ft 369 kts 112°
2026-04-29 21:50 24.62694 103.50075 26813 ft 369 kts 112°
2026-04-29 21:50 24.61767 103.52715 26816 ft 370 kts 112°
2026-04-29 21:51 24.60846 103.55338 26817 ft 369 kts 112°
2026-04-29 21:51 24.59928 103.57949 26817 ft 369 kts 112°
2026-04-29 21:51 24.58076 103.63219 26820 ft 369 kts 112°
2026-04-29 21:52 24.57150 103.65851 26822 ft 369 kts 113°
2026-04-29 21:52 24.56230 103.68462 26823 ft 370 kts 113°
2026-04-29 21:52 24.55301 103.71096 26826 ft 369 kts 113°
2026-04-29 21:52 24.54430 103.73739 26823 ft 370 kts 110°
2026-04-29 21:53 24.53702 103.76469 26825 ft 371 kts 106°
2026-04-29 21:53 24.53108 103.79198 26827 ft 371 kts 104°
2026-04-29 21:53 24.52527 103.81959 26826 ft 371 kts 104°
2026-04-29 21:53 24.51950 103.84704 26825 ft 371 kts 104°
2026-04-29 21:54 24.51364 103.87481 26824 ft 371 kts 104°
2026-04-29 21:54 24.50785 103.90215 26828 ft 371 kts 104°
2026-04-29 21:54 24.50197 103.92980 26828 ft 371 kts 104°
2026-04-29 21:54 24.49610 103.95746 26827 ft 372 kts 104°
2026-04-29 21:55 24.49026 103.98484 26827 ft 371 kts 104°
2026-04-29 21:55 24.48438 104.01238 26827 ft 371 kts 104°
2026-04-29 21:55 24.47854 104.03969 26827 ft 371 kts 104°
2026-04-29 21:55 24.47263 104.06731 26829 ft 372 kts 105°
2026-04-29 21:56 24.46666 104.09513 26826 ft 371 kts 104°
2026-04-29 21:56 24.46082 104.12233 26824 ft 371 kts 104°
2026-04-29 21:56 24.45485 104.15015 26820 ft 371 kts 104°
2026-04-29 21:56 24.44898 104.17750 26818 ft 371 kts 105°
2026-04-29 21:57 24.44303 104.20515 26816 ft 371 kts 105°
2026-04-29 21:57 24.43717 104.23241 26812 ft 371 kts 105°
2026-04-29 21:57 24.43121 104.26002 26810 ft 371 kts 105°
2026-04-29 21:57 24.42527 104.28756 26809 ft 371 kts 105°
2026-04-29 21:58 24.41937 104.31488 26809 ft 370 kts 104°
2026-04-29 21:58 24.41346 104.34220 26807 ft 370 kts 104°
2026-04-29 21:58 24.40750 104.36975 26805 ft 370 kts 104°
2026-04-29 21:58 24.40164 104.39687 26803 ft 370 kts 104°
2026-04-29 21:59 24.39569 104.42436 26799 ft 370 kts 104°
2026-04-29 21:59 24.38973 104.45180 26801 ft 370 kts 104°
2026-04-29 21:59 24.38381 104.47909 26799 ft 370 kts 104°
2026-04-29 21:59 24.37781 104.50671 26794 ft 370 kts 104°
2026-04-29 22:00 24.37186 104.53411 26792 ft 369 kts 104°
2026-04-29 22:00 24.36593 104.56131 26789 ft 369 kts 104°
2026-04-29 22:00 24.36001 104.58848 26790 ft 369 kts 104°
2026-04-29 22:00 24.35400 104.61601 26789 ft 369 kts 104°
2026-04-29 22:01 24.34810 104.64307 26788 ft 369 kts 104°
2026-04-29 22:01 24.34214 104.67037 26785 ft 369 kts 105°
2026-04-29 22:01 24.33614 104.69776 26782 ft 369 kts 105°
2026-04-29 22:01 24.33016 104.72510 26778 ft 369 kts 105°
2026-04-29 22:02 24.32414 104.75256 26777 ft 369 kts 105°
2026-04-29 22:02 24.31819 104.77969 26774 ft 369 kts 105°
2026-04-29 22:02 24.31217 104.80718 26773 ft 369 kts 105°
2026-04-29 22:02 24.30620 104.83433 26772 ft 369 kts 105°
2026-04-29 22:03 24.30020 104.86159 26768 ft 369 kts 105°
2026-04-29 22:03 24.29420 104.88882 26765 ft 369 kts 105°
2026-04-29 22:03 24.28821 104.91607 26766 ft 368 kts 105°
2026-04-29 22:03 24.28220 104.94333 26765 ft 368 kts 105°
2026-04-29 22:04 24.27618 104.97060 26761 ft 368 kts 105°
2026-04-29 22:04 24.27019 104.99775 26760 ft 367 kts 105°
2026-04-29 22:04 24.26420 105.02483 26758 ft 368 kts 105°
2026-04-29 22:04 24.25819 105.05199 26755 ft 368 kts 105°
2026-04-29 22:05 24.25213 105.07935 26755 ft 368 kts 105°
2026-04-29 22:05 24.24616 105.10628 26754 ft 367 kts 105°
2026-04-29 22:05 24.23404 105.16084 26751 ft 367 kts 105°
2026-04-29 22:06 24.22806 105.18773 26749 ft 368 kts 105°
2026-04-29 22:06 24.22204 105.21480 26751 ft 367 kts 105°
2026-04-29 22:06 24.21570 105.24199 26752 ft 368 kts 106°
2026-04-29 22:06 24.20917 105.26893 26751 ft 368 kts 106°
2026-04-29 22:07 24.20256 105.29600 26750 ft 368 kts 106°
2026-04-29 22:07 24.19593 105.32323 26749 ft 368 kts 106°
2026-04-29 22:07 24.18944 105.34991 26748 ft 368 kts 106°
2026-04-29 22:07 24.18288 105.37695 26747 ft 368 kts 106°
2026-04-29 22:08 24.17631 105.40398 26745 ft 367 kts 106°
2026-04-29 22:08 24.16971 105.43115 26744 ft 367 kts 106°
2026-04-29 22:08 24.16322 105.45791 26742 ft 367 kts 106°
2026-04-29 22:08 24.15666 105.48487 26743 ft 367 kts 106°
2026-04-29 22:09 24.15002 105.51212 26741 ft 367 kts 106°
2026-04-29 22:09 24.14347 105.53904 26738 ft 367 kts 106°
2026-04-29 22:09 24.13693 105.56589 26737 ft 367 kts 106°
2026-04-29 22:09 24.13034 105.59289 26735 ft 366 kts 106°
2026-04-29 22:10 24.12378 105.61980 26733 ft 366 kts 106°
2026-04-29 22:10 24.11729 105.64638 26732 ft 367 kts 106°
2026-04-29 22:10 24.11070 105.67331 26731 ft 367 kts 107°
2026-04-29 22:10 24.10410 105.70060 26732 ft 367 kts 105°
2026-04-29 22:11 24.09849 105.72772 26734 ft 368 kts 104°
2026-04-29 22:11 24.09312 105.75495 26731 ft 367 kts 103°
2026-04-29 22:11 24.08778 105.78212 26733 ft 368 kts 104°
2026-04-29 22:11 24.08240 105.80941 26732 ft 367 kts 103°
2026-04-29 22:12 24.07698 105.83688 26727 ft 367 kts 104°
2026-04-29 22:12 24.07164 105.86385 26724 ft 367 kts 104°
2026-04-29 22:12 24.06625 105.89104 26722 ft 368 kts 104°
2026-04-29 22:12 24.06082 105.91835 26716 ft 367 kts 103°
2026-04-29 22:13 24.05537 105.94575 26712 ft 368 kts 103°
2026-04-29 22:13 24.04998 105.97283 26710 ft 367 kts 103°
2026-04-29 22:13 24.04453 106.00021 26714 ft 375 kts 103°
2026-04-29 22:13 24.03886 106.02852 26716 ft 390 kts 103°
2026-04-29 22:14 24.03292 106.05818 26712 ft 405 kts 103°
2026-04-29 22:14 24.02679 106.08886 26709 ft 419 kts 103°
2026-04-29 22:14 24.02049 106.12032 26707 ft 433 kts 103°
2026-04-29 22:14 24.01393 106.15303 26705 ft 446 kts 103°
2026-04-29 22:15 24.00721 106.18649 26705 ft 458 kts 103°
2026-04-29 22:15 24.00038 106.22057 26702 ft 469 kts 103°
2026-04-29 22:15 23.99328 106.25584 26701 ft 479 kts 103°
2026-04-29 22:15 23.98605 106.29176 26700 ft 489 kts 103°
2026-04-29 22:16 23.97874 106.32803 26700 ft 497 kts 103°
2026-04-29 22:16 23.97125 106.36517 26699 ft 503 kts 103°
2026-04-29 22:16 23.96369 106.40260 26700 ft 505 kts 103°
2026-04-29 22:16 23.95618 106.43975 26701 ft 505 kts 103°
2026-04-29 22:17 23.94856 106.47738 26701 ft 506 kts 103°
2026-04-29 22:17 23.94092 106.51500 26701 ft 506 kts 103°
2026-04-29 22:17 23.93321 106.55210 26698 ft 506 kts 105°
2026-04-29 22:17 23.92147 106.58825 26695 ft 504 kts 116°
2026-04-29 22:18 23.90440 106.62126 26697 ft 502 kts 126°
2026-04-29 22:18 23.88237 106.65098 26704 ft 500 kts 134°
2026-04-29 22:18 23.85887 106.67866 26701 ft 500 kts 135°
2026-04-29 22:18 23.83507 106.70615 26698 ft 499 kts 135°
2026-04-29 22:19 23.81120 106.73368 26695 ft 499 kts 135°
2026-04-29 22:19 23.78744 106.76120 26692 ft 499 kts 135°
2026-04-29 22:19 23.76364 106.78887 26690 ft 499 kts 135°
2026-04-29 22:19 23.74001 106.81643 26689 ft 499 kts 135°
2026-04-29 22:20 23.71616 106.84429 26688 ft 500 kts 135°
2026-04-29 22:20 23.69249 106.87197 26689 ft 500 kts 135°
2026-04-29 22:20 23.66879 106.89967 26688 ft 500 kts 135°
2026-04-29 22:20 23.64505 106.92741 26689 ft 501 kts 135°
2026-04-29 22:21 23.62118 106.95528 26688 ft 500 kts 135°
2026-04-29 22:21 23.59748 106.98295 26688 ft 500 kts 135°
2026-04-29 22:21 23.57380 107.01055 26690 ft 500 kts 135°
2026-04-29 22:21 23.55020 107.03804 26690 ft 500 kts 135°
2026-04-29 22:22 23.52640 107.06576 26690 ft 501 kts 135°
2026-04-29 22:22 23.50265 107.09343 26694 ft 502 kts 135°
2026-04-29 22:22 23.47867 107.12132 26695 ft 502 kts 135°
2026-04-29 22:22 23.45490 107.14900 26694 ft 502 kts 135°
2026-04-29 22:23 23.43093 107.17688 26697 ft 501 kts 135°
2026-04-29 22:23 23.40734 107.20431 26696 ft 501 kts 135°
2026-04-29 22:23 23.38326 107.23227 26695 ft 501 kts 135°
2026-04-29 22:23 23.35954 107.25979 26694 ft 502 kts 135°
2026-04-29 22:24 23.33580 107.28733 26693 ft 501 kts 135°
2026-04-29 22:24 23.31198 107.31495 26692 ft 502 kts 135°
2026-04-29 22:24 23.28791 107.34282 26692 ft 502 kts 135°
2026-04-29 22:24 23.26408 107.37042 26691 ft 502 kts 135°
2026-04-29 22:25 23.24011 107.39816 26690 ft 502 kts 135°
2026-04-29 22:25 23.21634 107.42565 26689 ft 503 kts 135°
2026-04-29 22:25 23.19231 107.45343 26689 ft 503 kts 135°
2026-04-29 22:25 23.16846 107.48100 26689 ft 503 kts 135°
2026-04-29 22:26 23.14451 107.50867 26687 ft 503 kts 135°
2026-04-29 22:26 23.12043 107.53646 26685 ft 503 kts 135°
2026-04-29 22:26 23.09648 107.56411 26683 ft 503 kts 135°
2026-04-29 22:26 23.07254 107.59173 26684 ft 503 kts 135°
2026-04-29 22:27 23.04849 107.61943 26682 ft 502 kts 135°
2026-04-29 22:27 23.02449 107.64707 26682 ft 502 kts 135°
2026-04-29 22:27 23.00075 107.67439 26680 ft 501 kts 136°
2026-04-29 22:27 22.97662 107.70214 26678 ft 501 kts 136°
2026-04-29 22:28 22.95267 107.72968 26675 ft 502 kts 135°
2026-04-29 22:28 22.92870 107.75725 26672 ft 503 kts 135°
2026-04-29 22:28 22.90475 107.78476 26673 ft 503 kts 135°
2026-04-29 22:28 22.88084 107.81222 26670 ft 503 kts 135°
2026-04-29 22:29 22.85700 107.83961 26670 ft 503 kts 135°
2026-04-29 22:29 22.83288 107.86728 26670 ft 504 kts 135°
2026-04-29 22:29 22.80873 107.89499 26669 ft 504 kts 135°
2026-04-29 22:29 22.78487 107.92235 26667 ft 503 kts 135°
2026-04-29 22:30 22.76075 107.95000 26666 ft 502 kts 136°
2026-04-29 22:30 22.73676 107.97748 26667 ft 502 kts 136°
2026-04-29 22:30 22.71265 108.00507 26666 ft 502 kts 135°
2026-04-29 22:30 22.68891 108.03223 26664 ft 502 kts 136°
2026-04-29 22:31 22.66497 108.05960 26664 ft 502 kts 135°
2026-04-29 22:31 22.64083 108.08720 26664 ft 501 kts 135°
2026-04-29 22:31 22.61704 108.11438 26663 ft 501 kts 136°
2026-04-29 22:31 22.59299 108.14195 26666 ft 502 kts 135°
2026-04-29 22:32 22.57000 108.17033 26666 ft 503 kts 132°
2026-04-29 22:32 22.54747 108.19926 26664 ft 504 kts 132°
2026-04-29 22:32 22.52510 108.22815 26665 ft 504 kts 132°
2026-04-29 22:32 22.50245 108.25741 26666 ft 504 kts 132°
2026-04-29 22:33 22.48003 108.28635 26667 ft 504 kts 132°
2026-04-29 22:33 22.45762 108.31524 26668 ft 504 kts 132°
2026-04-29 22:33 22.43493 108.34448 26669 ft 504 kts 132°
2026-04-29 22:33 22.41253 108.37331 26668 ft 504 kts 132°
2026-04-29 22:34 22.38990 108.40243 26668 ft 504 kts 132°
2026-04-29 22:34 22.36751 108.43121 26665 ft 504 kts 132°
2026-04-29 22:34 22.34498 108.46016 26665 ft 504 kts 132°
2026-04-29 22:34 22.32241 108.48914 26666 ft 504 kts 132°
2026-04-29 22:35 22.29987 108.51807 26663 ft 504 kts 132°
2026-04-29 22:35 22.27732 108.54699 26663 ft 504 kts 132°
2026-04-29 22:35 22.25472 108.57597 26664 ft 504 kts 132°
2026-04-29 22:35 22.23231 108.60469 26663 ft 503 kts 132°
2026-04-29 22:36 22.20985 108.63346 26661 ft 503 kts 132°
2026-04-29 22:36 22.18708 108.66263 26657 ft 503 kts 132°
2026-04-29 22:36 22.16474 108.69122 26657 ft 503 kts 132°
2026-04-29 22:36 22.14205 108.72023 26657 ft 504 kts 133°
2026-04-29 22:37 22.11963 108.74888 26656 ft 504 kts 132°
2026-04-29 22:37 22.09714 108.77765 26656 ft 504 kts 132°
2026-04-29 22:37 22.07456 108.80660 26655 ft 504 kts 132°
2026-04-29 22:37 22.05193 108.83562 26654 ft 504 kts 132°
2026-04-29 22:38 22.02939 108.86453 26653 ft 504 kts 132°
2026-04-29 22:38 22.00695 108.89327 26650 ft 504 kts 132°
2026-04-29 22:38 21.98430 108.92230 26649 ft 504 kts 132°
2026-04-29 22:38 21.96185 108.95105 26649 ft 504 kts 132°
2026-04-29 22:39 21.93917 108.98006 26650 ft 503 kts 132°
2026-04-29 22:39 21.91691 109.00855 26646 ft 503 kts 132°
2026-04-29 22:39 21.89412 109.03768 26644 ft 503 kts 132°
2026-04-29 22:39 21.87171 109.06630 26643 ft 502 kts 132°
2026-04-29 22:40 21.84907 109.09520 26642 ft 503 kts 132°
2026-04-29 22:40 21.82662 109.12395 26639 ft 503 kts 132°
2026-04-29 22:40 21.80434 109.15256 26638 ft 503 kts 132°
2026-04-29 22:40 21.78194 109.18133 26639 ft 503 kts 132°
2026-04-29 22:41 21.75938 109.21027 26638 ft 503 kts 132°
2026-04-29 22:41 21.73685 109.23917 26637 ft 503 kts 132°
2026-04-29 22:41 21.71437 109.26801 26638 ft 503 kts 132°
2026-04-29 22:41 21.69190 109.29678 26635 ft 504 kts 132°
2026-04-29 22:42 21.66937 109.32563 26633 ft 504 kts 132°
2026-04-29 22:42 21.64718 109.35405 26633 ft 504 kts 132°
2026-04-29 22:42 21.62456 109.38296 26632 ft 503 kts 132°
2026-04-29 22:42 21.60070 109.41084 26631 ft 501 kts 138°
2026-04-29 22:43 21.57472 109.43529 26631 ft 498 kts 144°
2026-04-29 22:43 21.54660 109.45648 26633 ft 496 kts 150°
2026-04-29 22:43 21.51698 109.47533 26634 ft 495 kts 152°
2026-04-29 22:43 21.48701 109.49370 26633 ft 495 kts 153°
2026-04-29 22:44 21.45701 109.51195 26633 ft 495 kts 153°
2026-04-29 22:44 21.42700 109.53031 26632 ft 495 kts 152°
2026-04-29 22:44 21.39697 109.54879 26632 ft 494 kts 152°
2026-04-29 22:44 21.36749 109.56700 26634 ft 494 kts 152°
2026-04-29 22:45 21.33674 109.58393 26631 ft 492 kts 159°
2026-04-29 22:45 21.30459 109.59669 26631 ft 489 kts 166°
2026-04-29 22:45 21.27162 109.60516 26630 ft 486 kts 173°
2026-04-29 22:45 21.23804 109.61058 26630 ft 486 kts 174°
2026-04-29 22:46 21.20468 109.61536 26627 ft 486 kts 175°
2026-04-29 22:46 21.17096 109.62006 26626 ft 486 kts 175°
2026-04-29 22:46 21.13774 109.62472 26626 ft 486 kts 175°
2026-04-29 22:46 21.10413 109.62949 26624 ft 486 kts 175°
2026-04-29 22:47 21.07056 109.63429 26623 ft 486 kts 175°
2026-04-29 22:47 21.03677 109.63915 26623 ft 487 kts 175°
2026-04-29 22:47 21.00306 109.64402 26622 ft 487 kts 175°
2026-04-29 22:47 20.96969 109.64883 26621 ft 487 kts 175°
2026-04-29 22:48 20.93592 109.65372 26618 ft 486 kts 175°
2026-04-29 22:48 20.90257 109.65855 26619 ft 486 kts 175°
2026-04-29 22:48 20.86879 109.66343 26618 ft 486 kts 175°
2026-04-29 22:48 20.83555 109.66823 26618 ft 486 kts 175°
2026-04-29 22:49 20.80194 109.67308 26616 ft 486 kts 175°
2026-04-29 22:49 20.76837 109.67793 26610 ft 486 kts 175°
2026-04-29 22:49 20.73494 109.68276 26610 ft 485 kts 175°
2026-04-29 22:49 20.70149 109.68758 26612 ft 485 kts 175°
2026-04-29 22:50 20.66772 109.69244 26612 ft 485 kts 175°
2026-04-29 22:50 20.63408 109.69729 26615 ft 485 kts 175°
2026-04-29 22:50 20.60093 109.70207 26611 ft 479 kts 175°
2026-04-29 22:50 20.56839 109.70679 26614 ft 459 kts 175°
2026-04-29 22:51 20.53778 109.71358 26526 ft 446 kts 162°
2026-04-29 22:51 20.51116 109.72946 26296 ft 438 kts 146°
2026-04-29 22:51 20.46373 109.76820 25598 ft 424 kts 145°
2026-04-29 22:52 20.44019 109.78704 24737 ft 430 kts 146°
2026-04-29 22:52 20.41591 109.80600 24067 ft 429 kts 146°
2026-04-29 22:52 20.39174 109.82459 23652 ft 423 kts 147°
2026-04-29 22:52 20.36835 109.84247 23470 ft 411 kts 147°
2026-04-29 22:53 20.34529 109.86000 23187 ft 403 kts 147°
2026-04-29 22:53 20.32245 109.87734 22739 ft 400 kts 147°
2026-04-29 22:53 20.29979 109.89449 22261 ft 398 kts 147°
2026-04-29 22:53 20.27726 109.91153 21810 ft 396 kts 147°
2026-04-29 22:54 20.25496 109.92855 21363 ft 394 kts 145°
2026-04-29 22:54 20.23369 109.94653 20880 ft 394 kts 143°
2026-04-29 22:54 20.21254 109.96519 20303 ft 395 kts 142°
2026-04-29 22:54 20.19155 109.98371 19733 ft 396 kts 142°
2026-04-29 22:55 20.17016 110.00240 19149 ft 397 kts 143°
2026-04-29 22:55 20.14868 110.02103 18571 ft 398 kts 143°
2026-04-29 22:55 20.12723 110.03957 17986 ft 394 kts 143°
2026-04-29 22:55 20.10628 110.05770 17395 ft 382 kts 143°
2026-04-29 22:56 20.08621 110.07505 16817 ft 371 kts 143°
2026-04-29 22:56 20.06618 110.09232 16178 ft 369 kts 143°
2026-04-29 22:56 20.04633 110.10947 15387 ft 365 kts 141°
2026-04-29 22:56 20.02925 110.12929 14603 ft 373 kts 123°
2026-04-29 22:57 20.01874 110.15446 13828 ft 380 kts 104°
2026-04-29 22:57 20.01608 110.18211 13043 ft 373 kts 87°
2026-04-29 22:57 20.01752 110.20908 12287 ft 363 kts 85°
2026-04-29 22:57 20.01921 110.23536 11661 ft 350 kts 85°
2026-04-29 22:58 20.02075 110.26059 11037 ft 339 kts 86°
2026-04-29 22:58 20.02213 110.28521 10412 ft 330 kts 86°
2026-04-29 22:58 20.02339 110.30914 9787 ft 322 kts 86°
2026-04-29 22:58 20.02456 110.33239 9170 ft 315 kts 86°
2026-04-29 22:59 20.02570 110.35551 8541 ft 309 kts 86°
2026-04-29 22:59 20.02678 110.37781 7923 ft 304 kts 86°
2026-04-29 22:59 20.02785 110.40018 7290 ft 299 kts 86°
2026-04-29 22:59 20.02890 110.42190 6662 ft 294 kts 86°
2026-04-29 23:00 20.02991 110.44305 6163 ft 285 kts 86°
2026-04-29 23:00 20.03091 110.46393 5699 ft 281 kts 86°
2026-04-29 23:00 20.03190 110.48473 5238 ft 282 kts 85°
2026-04-29 23:00 20.03287 110.50536 4774 ft 277 kts 85°
2026-04-29 23:01 20.03383 110.52548 4307 ft 268 kts 85°
2026-04-29 23:01 20.03474 110.54481 3844 ft 260 kts 85°
2026-04-29 23:01 20.03566 110.56377 3376 ft 252 kts 85°
2026-04-29 23:01 20.03657 110.58195 2994 ft 248 kts 85°
2026-04-29 23:02 20.03748 110.60010 2893 ft 242 kts 85°
2026-04-29 23:02 20.03834 110.61742 2878 ft 227 kts 85°
2026-04-29 23:02 20.03985 110.63355 2863 ft 210 kts 75°
2026-04-29 23:02 20.04402 110.64798 2874 ft 201 kts 69°
2026-04-29 23:03 20.04673 110.66235 2848 ft 195 kts 98°
2026-04-29 23:03 20.04031 110.67442 2860 ft 194 kts 141°
2026-04-29 23:03 20.02865 110.68161 2902 ft 196 kts 152°
2026-04-29 23:03 20.01646 110.68816 2894 ft 195 kts 150°
2026-04-29 23:04 20.00446 110.69508 2893 ft 195 kts 149°
2026-04-29 23:04 19.99269 110.70227 2891 ft 195 kts 148°
2026-04-29 23:04 19.98018 110.70782 2873 ft 197 kts 175°
2026-04-29 23:04 19.96681 110.70534 2884 ft 198 kts 212°
2026-04-29 23:05 19.95750 110.69485 2891 ft 196 kts 249°
2026-04-29 23:05 19.95420 110.68090 2908 ft 195 kts 266°
2026-04-29 23:05 19.95375 110.66652 2901 ft 194 kts 273°
2026-04-29 23:05 19.95407 110.65228 2896 ft 193 kts 274°
2026-04-29 23:06 19.95435 110.63786 2801 ft 194 kts 273°
2026-04-29 23:06 19.95440 110.62376 2678 ft 190 kts 272°
2026-04-29 23:06 19.95410 110.60996 2438 ft 183 kts 270°
2026-04-29 23:06 19.95352 110.59683 2183 ft 171 kts 270°
2026-04-29 23:07 19.95313 110.58468 1940 ft 159 kts 272°
2026-04-29 23:07 19.95351 110.57333 1691 ft 147 kts 276°
2026-04-29 23:07 19.95384 110.56267 1507 ft 146 kts 274°
2026-04-29 23:07 19.95377 110.55186 1303 ft 145 kts 274°
2026-04-29 23:08 19.95390 110.54118 1133 ft 144 kts 274°
2026-04-29 23:08 19.95388 110.53059 964 ft 143 kts 273°
2026-04-29 23:08 19.95371 110.51997 773 ft 142 kts 273°
2026-04-29 23:08 19.95382 110.50960 583 ft 141 kts 274°
2026-04-29 23:09 19.95409 110.49921 429 ft 141 kts 272°
2026-04-29 23:09 19.95378 110.48890 224 ft 139 kts 272°
2026-04-29 23:09 19.95373 110.47872 80 ft 135 kts 273°
2026-04-29 23:09 19.95389 110.46928 116 ft 132 kts 274°
2026-04-29 23:10 19.95594 110.44545 1067 ft 158 kts 312°
2026-04-29 23:11 19.96482 110.44062 1854 ft 148 kts 354°
2026-04-29 23:11 19.97527 110.44083 2497 ft 157 kts
2026-04-29 23:11 19.98596 110.44480 2820 ft 166 kts 41°
2026-04-29 23:11 19.99050 110.45570 2924 ft 178 kts 87°
2026-04-29 23:12 19.98935 110.46950 2943 ft 191 kts 93°
2026-04-29 23:12 19.98849 110.48357 2920 ft 192 kts 91°
2026-04-29 23:12 19.98791 110.49772 2910 ft 193 kts 89°
2026-04-29 23:12 19.98959 110.51187 2904 ft 190 kts 73°
2026-04-29 23:13 19.99359 110.52522 2904 ft 190 kts 70°
2026-04-29 23:13 19.99801 110.53852 2902 ft 190 kts 69°
2026-04-29 23:13 20.00245 110.55162 2903 ft 190 kts 69°
2026-04-29 23:13 20.00686 110.56503 2900 ft 191 kts 74°
2026-04-29 23:14 20.00849 110.57900 2903 ft 193 kts 85°
2026-04-29 23:14 20.00882 110.59338 2899 ft 193 kts 87°
2026-04-29 23:14 20.00895 110.60763 2897 ft 192 kts 88°
2026-04-29 23:14 20.00909 110.62171 2896 ft 192 kts 88°
2026-04-29 23:15 20.00922 110.63605 2894 ft 192 kts 88°
2026-04-29 23:15 20.00896 110.65009 2888 ft 193 kts 97°
2026-04-29 23:15 20.00268 110.66265 2881 ft 198 kts 135°
2026-04-29 23:15 19.98542 110.66853 2882 ft 202 kts 189°
2026-04-29 23:16 19.97677 110.66483 2885 ft 202 kts 216°
2026-04-29 23:16 19.96654 110.65469 2908 ft 202 kts 226°
2026-04-29 23:16 19.95704 110.64365 2881 ft 201 kts 239°
2026-04-29 23:16 19.95319 110.62975 2844 ft 198 kts 267°
2026-04-29 23:17 19.95416 110.61488 2537 ft 201 kts 284°
2026-04-29 23:17 19.95574 110.60058 2459 ft 205 kts 272°
2026-04-29 23:17 19.95435 110.58538 2120 ft 199 kts 265°
2026-04-29 23:17 19.95346 110.57104 1807 ft 190 kts 272°
2026-04-29 23:18 19.95340 110.55744 1525 ft 181 kts 273°
2026-04-29 23:18 19.95379 110.54447 1231 ft 170 kts 275°
2026-04-29 23:18 19.95376 110.53250 1000 ft 157 kts 270°
2026-04-29 23:18 19.95335 110.52136 760 ft 145 kts 272°
2026-04-29 23:19 19.95350 110.51097 563 ft 139 kts 275°
2026-04-29 23:19 19.95370 110.50076 418 ft 139 kts 273°
2026-04-29 23:19 19.95379 110.49053 263 ft 138 kts 274°
2026-04-29 23:19 19.95377 110.48037 85 ft 137 kts 273°
2026-04-29 23:20 19.95382 110.47108 56 ft 105 kts 269°
2026-04-29 23:20 19.95377 110.46489 54 ft 48 kts 270°
2026-04-29 23:20 19.95370 110.46228 58 ft 30 kts 262°
2026-04-29 23:20 19.95314 110.46056 66 ft 23 kts 244°
2026-04-29 23:21 19.95238 110.45966 68 ft 14 kts 187°
2026-04-29 23:21 19.95113 110.45963 69 ft 12 kts 177°
2026-04-29 23:21 19.95060 110.45964 70 ft 11 kts 181°
2026-04-29 23:21 19.94985 110.45969 71 ft 10 kts 173°
2026-04-29 23:22 19.94917 110.45978 71 ft 6 kts 172°
2026-04-29 23:22 19.94912 110.45978 71 ft 0 kts 172°